Location: Hokitika
(42.7170°S, 170.9670°E)
Time: 21:20:53
(UTC+12:00)

ISS - Pass Details

Date: 22 May 2021
Orbit: 417 x 422 km, 51.6° (Epoch: 21 June)

Event Time Altitude Azimuth Distance (km) Brightness Sun altitude
Rises 07:14:27 0° 304° (WNW) 2,383 -0.3 -6.4°
Reaches altitude 10° 07:16:33 10° 303° (WNW) 1,522 -1.2 -6.0°
Maximum altitude 07:19:58 85° 213° (SSW) 437 -3.7 -5.5°
Drops below altitude 10° 07:23:26 10° 124° (SE) 1,535 -0.4 -4.9°
Sets 07:25:33 0° 123° (ESE) 2,405 0.6 -4.5°
